SL-16 DEB, 22422

Orbit data source: Space-Track

SL-16 DEB, 22422 is space debris in LEO originally from a launch on Fri, 25 Dec 1992 UTC launched from the Tyuratam Missile And Space Complex (TTMTR). Debris objects in space refer to the collection of defunct objects orbiting the Earth. Examples of debris include non-operational satellites, rocket bodies, and fragments generated from explosions, collisions, or faulty payload assembly.

Loading next visibility...
Identifier
22422, 1992-093DP
Orbit
LEO
Country
Flag of CISCIS
Related business
Manufacturer
Unknown
Mission
Spacecraft
Bus & Motor
Unknown
Mass
Unknown
Launch date (UTC)
1992-12-25 (33 years ago)
Launch vehicle
Unknown
Launch site
Tyuratam Missile And Space Complex (TTMTR)
Object type
Payload
Rocket body
Debris
Shape & HBR
Unknown shape, 0.1 m
Radar Cross Section
Small (<0.1 m²)

Expand to show TLE details & history
Last TLE update: 22 hours ago

TLE from 22 hours ago
0 SL-16 DEB
1 22422U 92093DP  25304.85724575  .00000436  00000-0  31234-3 0  9991
2 22422  71.1812 134.3229 0090583  57.5968  55.3025 14.00440816672422
Epoch: 2025-10-31T20:34Z
TLE epoch observation values (Epoch: 2025-10-31T20:34:26.032Z)
Latitude
60.14322°
Longitude
-70.8782°
Altitude
864.885 km
Speed
7.445 km/s
True Right ascension
18h 32m 30s
True Declination
59° 59' 48"
Sunlit
Object was in daylight at epoch
Visualization orbit readout
Latitude
Unknown
Longitude
Unknown
Altitude
Unknown
Speed
Unknown
Apparent Right ascension
Unknown
Apparent Declination
Unknown
Sunlit
N/A
Visualization observer readout
Local Sidereal Time
13:59:00
Azimuth
Unknown
Elevation
Unknown
Doppler factor
Unknown
Orbital elements
Apogee altitude
956.029 km
Perigee altitude
824.352 km
Semi-major axis
7,268.327 km
Eccentricity
0.00906
Inclination
71.1812°
RAAN
134.3229°
Arg. of periapsis
57.5968°
True anomaly
56.16142°
Mean anomaly
55.3025°
Eccentric anomaly
55.73141°
Mean motion
3.50261 °/min
Orbital period
102.78 mins
BSTAR
0.00031234
Loading maneuver chart data...
Computing Atmospheric mass density...
Loading historical data...
Loading historical data...
Loading historical data...
Loading historical data...
Loading historical data...
Loading historical data...
Loading historical data...

Documentation

Showing up to 5 results
|